KC0AFB Weather Reports


time (UTC)temp
C
wind
direction
speed
KPH
gust
KPH
rain 1hr
cm
rain 24hr
cm
rain mn
cm
humidity
%
barometer
mb
20260904225202 30 88 19.3 29.0 0.00 0.00 0.00 54 1011.6
20260904224656 30 113 17.7 20.9 0.00 0.00 0.00 54 1011.7
20260904224151 30 104 14.5 16.1 0.00 0.00 0.00 54 1011.8
20260904223651 30 55 19.3 24.1 0.00 0.00 0.00 53 1011.8
20260904223146 30 57 14.5 20.9 0.00 0.00 0.00 52 1011.7
20260904222642 30 103 19.3 22.5 0.00 0.00 0.00 51 1012.0
20260904222137 30 85 24.1 27.4 0.00 0.00 0.00 50 1011.9
20260904221636 30 92 12.9 12.9 0.00 0.00 0.00 50 1011.7
20260904221132 30 106 22.5 27.4 0.00 0.00 0.00 48 1011.9
20260904220626 30 115 16.1 17.7 0.00 0.00 0.00 48 1012.2
20260904220122 31 127 17.7 20.9 0.00 0.00 0.00 46 1012.1
20260904215622 31 120 11.3 16.1 0.00 0.00 0.00 47 1012.1
20260904215118 31 127 12.9 14.5 0.00 0.00 0.00 45 1012.2
20260904214618 31 122 20.9 27.4 0.00 0.00 0.00 44 1012.0
20260904214114 31 90 19.3 22.5 0.00 0.00 0.00 44 1012.0
20260904213611 31 88 14.5 20.9 0.00 0.00 0.00 44 1012.0
20260904213108 31 102 19.3 27.4 0.00 0.00 0.00 45 1011.9
20260904212608 31 122 22.5 24.1 0.00 0.00 0.00 45 1012.0
20260904212103 31 136 25.7 29.0 0.00 0.00 0.00 44 1011.9
20260904211602 31 86 20.9 25.7 0.00 0.00 0.00 45 1011.9
20260904211058 31 147 14.5 22.5 0.00 0.00 0.00 46 1011.9
20260904210557 31 111 16.1 17.7 0.00 0.00 0.00 47 1012.1
20260904210053 31 119 16.1 20.9 0.00 0.00 0.00 47 1012.1
20260904205548 31 51 14.5 20.9 0.00 0.00 0.00 47 1012.2
20260904205045 31 125 25.7 29.0 0.00 0.00 0.00 46 1012.1
20260904204541 30 133 16.1 17.7 0.00 0.00 0.00 47 1012.2
20260904204036 31 122 16.1 17.7 0.00 0.00 0.00 47 1012.6
20260904203533 31 136 14.5 16.1 0.00 0.00 0.00 47 1012.5
20260904203029 31 108 14.5 17.7 0.00 0.00 0.00 47 1012.4
20260904202524 31 136 19.3 25.7 0.00 0.00 0.00 45 1012.4
20260904202021 31 96 17.7 22.5 0.00 0.00 0.00 44 1012.4
20260904201516 31 135 11.3 16.1 0.00 0.00 0.00 46 1012.6
20260904201011 31 85 16.1 17.7 0.00 0.00 0.00 44 1012.4
20260904200509 31 127 17.7 17.7 0.00 0.00 0.00 43 1012.5
20260904200005 31 93 8.0 9.7 0.00 0.00 0.00 43 1012.3
20260904195503 31 114 16.1 22.5 0.00 0.00 0.00 43 1012.2
20260904195002 31 139 17.7 20.9 0.00 0.00 0.00 41 1012.3
20260904194457 31 123 24.1 33.8 0.00 0.00 0.00 43 1012.2
20260904193952 30 90 14.5 16.1 0.00 0.00 0.00 46 1012.3
20260904193447 30 99 9.7 12.9 0.00 0.00 0.00 49 1012.5
20260904192942 30 106 12.9 17.7 0.00 0.00 0.00 51 1013.0
20260904192437 30 105 16.1 16.1 0.00 0.00 0.00 50 1012.6
20260904191934 30 122 20.9 24.1 0.00 0.00 0.00 50 1012.7
20260904191430 30 88 22.5 27.4 0.00 0.00 0.00 50 1013.0
20260904190926 30 72 19.3 22.5 0.00 0.00 0.00 50 1012.9
20260904190421 30 122 14.5 17.7 0.00 0.00 0.00 51 1013.2
20260904185918 30 134 12.9 16.1 0.00 0.00 0.00 52 1013.3
20260904185413 29 143 17.7 20.9 0.00 0.00 0.00 53 1013.5
20260904184913 30 140 8.0 9.7 0.00 0.00 0.00 53 1013.6
20260904184408 30 118 14.5 20.9 0.00 0.00 0.00 51 1013.4
20260904183903 29 153 19.3 22.5 0.00 0.00 0.00 52 1013.8
20260904183358 28 82 11.3 14.5 0.00 0.00 0.00 53 1013.9
20260904182854 29 114 17.7 17.7 0.00 0.00 0.00 53 1013.7
20260904182348 28 144 12.9 17.7 0.00 0.00 0.00 53 1013.7
20260904181843 28 134 12.9 14.5 0.00 0.00 0.00 55 1013.8
20260904181338 28 89 14.5 16.1 0.00 0.00 0.00 55 1013.9
20260904180833 28 135 14.5 20.9 0.00 0.00 0.00 56 1014.0
20260904180329 28 106 14.5 16.1 0.00 0.00 0.00 56 1013.9
20260904175828 28 126 17.7 20.9 0.00 0.00 0.00 57 1014.1
20260904175327 27 88 16.1 17.7 0.00 0.00 0.00 60 1014.4
20260904174827 27 154 14.5 16.1 0.00 0.00 0.00 59 1014.2
20260904174323 27 134 12.9 17.7 0.00 0.00 0.00 61 1014.4
20260904173819 27 124 14.5 16.1 0.00 0.00 0.00 63 1014.3
20260904173314 26 54 6.4 8.0 0.00 0.00 0.00 66 1014.2
20260904172810 26 90 8.0 9.7 0.00 0.00 0.00 64 1014.4
20260904172309 27 77 12.9 14.5 0.00 0.00 0.00 64 1014.5
20260904171804 26 92 11.3 12.9 0.00 0.00 0.00 66 1014.5
20260904171259 26 103 12.9 16.1 0.00 0.00 0.00 65 1014.4
20260904170755 26 75 11.3 14.5 0.00 0.00 0.00 67 1014.4
20260904170252 26 104 19.3 22.5 0.00 0.00 0.00 67 1014.1
20260904165750 25 97 9.7 14.5 0.00 0.00 0.00 70 1014.3
20260904165250 25 87 11.3 12.9 0.00 0.00 0.00 71 1014.2
20260904164744 25 100 11.3 12.9 0.00 0.00 0.00 72 1014.1
20260904164240 25 119 9.7 12.9 0.00 0.00 0.00 72 1014.3
20260904163736 25 118 12.9 14.5 0.00 0.00 0.00 72 1014.1
20260904163231 24 96 9.7 11.3 0.00 0.00 0.00 75 1014.1
20260904162730 24 85 17.7 20.9 0.00 0.00 0.00 74 1013.8
20260904162225 24 131 9.7 11.3 0.00 0.00 0.00 75 1013.9
20260904161720 23 89 12.9 16.1 0.00 0.00 0.00 76 1013.8
20260904161216 23 49 11.3 12.9 0.00 0.00 0.00 77 1013.9
20260904160711 23 64 11.3 11.3 0.00 0.00 0.00 78 1013.9
20260904160206 23 60 14.5 14.5 0.00 0.00 0.00 79 1013.9
20260904155706 22 59 16.1 17.7 0.00 0.00 0.00 80 1013.9
20260904155206 22 85 11.3 12.9 0.00 0.00 0.00 81 1013.9
20260904154704 22 74 17.7 22.5 0.00 0.00 0.00 82 1013.9
20260904154200 22 72 11.3 12.9 0.00 0.00 0.00 83 1014.0
20260904153655 21 93 11.3 12.9 0.00 0.00 0.00 83 1013.9
20260904153150 21 94 9.7 11.3 0.00 0.00 0.00 84 1014.2
20260904152647 21 90 12.9 16.1 0.00 0.00 0.00 85 1014.1
20260904152141 21 97 8.0 9.7 0.00 0.00 0.00 86 1014.1
20260904151636 20 88 14.5 14.5 0.00 0.00 0.00 86 1014.1
20260904151135 20 124 11.3 14.5 0.00 0.00 0.00 86 1014.1
20260904150631 20 81 8.0 12.9 0.00 0.00 0.00 87 1014.1
20260904150126 20 86 8.0 9.7 0.00 0.00 0.00 88 1014.2
20260904145625 20 74 11.3 16.1 0.00 0.00 0.00 88 1014.4
20260904145120 19 98 6.4 11.3 0.00 0.00 0.00 89 1014.0
20260904144616 18 101 11.3 14.5 0.00 0.00 0.00 89 1014.3
20260904144111 18 73 14.5 17.7 0.00 0.00 0.00 89 1014.3
20260904143607 18 65 14.5 16.1 0.00 0.00 0.00 90 1014.1
20260904143103 17 68 12.9 14.5 0.00 0.00 0.00 90 1014.4
20260904142559 17 119 8.0 9.7 0.00 0.00 0.00 91 1014.3
20260904142054 17 91 8.0 9.7 0.00 0.00 0.00 92 1014.4
20260904141549 17 122 8.0 9.7 0.00 0.00 0.00 93 1014.4
20260904141045 17 108 9.7 11.3 0.00 0.00 0.00 93 1014.5
20260904140540 17 104 8.0 9.7 0.00 0.00 0.00 94 1014.3
20260904140034 16 111 8.0 11.3 0.00 0.00 0.00 94 1014.3
20260904135533 16 61 4.8 8.0 0.00 0.00 0.00 95 1014.2
20260904135030 16 59 8.0 9.7 0.00 0.00 0.00 95 1014.3
20260904134525 16 73 4.8 8.0 0.00 0.00 0.00 95 1014.4
20260904134019 16 94 6.4 8.0 0.00 0.00 0.00 95 1014.8
20260904133513 16 70 4.8 8.0 0.00 0.00 0.00 95 1014.5
20260904133010 15 68 6.4 8.0 0.00 0.00 0.00 95 1014.5
20260904132504 15 58 4.8 4.8 0.00 0.00 0.00 96 1014.4
20260904132004 15 55 4.8 4.8 0.00 0.00 0.00 96 1014.6
20260904131458 15 104 1.6 1.6 0.00 0.00 0.00 96 1014.6
20260904130954 15 103 4.8 4.8 0.00 0.00 0.00 96 1014.3
20260904130453 15 70 3.2 4.8 0.00 0.00 0.00 96 1014.3
20260904125948 15 81 3.2 3.2 0.00 0.00 0.00 96 1014.4
20260904125445 14 68 4.8 8.0 0.00 0.00 0.00 96 1014.3
20260904124944 14 68 4.8 4.8 0.00 0.00 0.00 96 1014.3
20260904124440 14 79 4.8 4.8 0.00 0.00 0.00 96 1014.4
20260904123936 13 80 3.2 4.8 0.00 0.00 0.00 95 1014.1
20260904123430 14 52 4.8 4.8 0.00 0.00 0.00 95 1014.1
20260904122926 14 57 4.8 4.8 0.00 0.00 0.00 95 1014.1
20260904122426 14 70 4.8 4.8 0.00 0.00 0.00 95 1014.2
20260904121920 14 55 8.0 9.7 0.00 0.00 0.00 95 1014.1
20260904121417 14 79 4.8 4.8 0.00 0.00 0.00 95 1014.0
20260904120913 14 60 8.0 8.0 0.00 0.00 0.00 95 1013.8
20260904120409 14 61 4.8 4.8 0.00 0.00 0.00 95 1014.2
20260904115903 14 73 8.0 9.7 0.00 0.00 0.00 95 1013.9
20260904115359 14 68 4.8 4.8 0.00 0.00 0.00 95 1013.9
20260904114853 14 56 8.0 9.7 0.00 0.00 0.00 95 1014.2
20260904114348 15 87 8.0 9.7 0.00 0.00 0.00 95 1014.2
20260904113843 15 62 6.4 8.0 0.00 0.00 0.00 95 1014.1
20260904113343 15 68 6.4 8.0 0.00 0.00 0.00 95 1013.9
20260904112837 15 82 8.0 9.7 0.00 0.00 0.00 95 1014.2
20260904112333 15 70 6.4 9.7 0.00 0.00 0.00 95 1014.1
20260904111828 15 86 4.8 9.7 0.00 0.00 0.00 95 1014.0
20260904111324 15 77 4.8 8.0 0.00 0.00 0.00 95 1014.2
20260904110820 15 109 4.8 8.0 0.00 0.00 0.00 95 1014.1
20260904110319 15 91 8.0 9.7 0.00 0.00 0.00 95 1014.2
20260904105814 15 99 6.4 9.7 0.00 0.00 0.00 95 1014.4
20260904105314 15 103 8.0 11.3 0.00 0.00 0.00 95 1014.4
20260904104809 15 108 6.4 8.0 0.00 0.00 0.00 95 1014.2
20260904104304 15 110 9.7 11.3 0.00 0.00 0.00 95 1014.3
20260904103802 15 105 6.4 8.0 0.00 0.00 0.00 94 1014.0
20260904103300 15 94 8.0 9.7 0.00 0.00 0.00 94 1014.3
20260904102756 15 130 9.7 11.3 0.00 0.00 0.00 94 1014.1
20260904102252 15 92 8.0 8.0 0.00 0.00 0.00 94 1013.9
20260904101748 15 95 9.7 11.3 0.00 0.00 0.00 94 1013.9
20260904101244 15 113 8.0 9.7 0.00 0.00 0.00 94 1014.1
20260904100739 15 111 8.0 9.7 0.00 0.00 0.00 94 1013.9
20260904100235 15 90 11.3 12.9 0.00 0.00 0.00 94 1013.8
20260904095735 15 100 9.7 12.9 0.00 0.00 0.00 94 1013.7
20260904095230 15 76 8.0 9.7 0.00 0.00 0.00 94 1013.9
20260904094725 15 89 8.0 9.7 0.00 0.00 0.00 94 1013.7
20260904094225 15 86 12.9 14.5 0.00 0.00 0.00 93 1013.6
20260904093721 16 83 8.0 11.3 0.00 0.00 0.00 93 1013.5
20260904093220 16 75 9.7 12.9 0.00 0.00 0.00 93 1013.2
20260904092716 16 91 9.7 11.3 0.00 0.00 0.00 93 1013.4
20260904092213 16 104 6.4 9.7 0.00 0.00 0.00 93 1013.2
20260904091708 16 78 11.3 12.9 0.00 0.00 0.00 93 1013.0
20260904091203 16 87 9.7 11.3 0.00 0.00 0.00 93 1013.1
20260904090659 16 74 11.3 14.5 0.00 0.00 0.00 93 1013.0
20260904090155 16 55 11.3 12.9 0.00 0.00 0.00 93 1012.9
20260904085650 16 73 12.9 14.5 0.00 0.00 0.00 93 1012.7
20260904085149 16 66 8.0 9.7 0.00 0.00 0.00 93 1012.6
20260904084644 16 90 11.3 11.3 0.00 0.00 0.00 93 1012.4
20260904084141 16 65 8.0 11.3 0.00 0.00 0.00 93 1012.9
20260904083637 16 75 8.0 11.3 0.00 0.00 0.00 93 1012.9
20260904083133 16 82 8.0 11.3 0.00 0.00 0.00 93 1012.6
20260904082627 16 56 8.0 9.7 0.00 0.00 0.00 93 1012.3
20260904082123 16 82 8.0 11.3 0.00 0.00 0.00 93 1012.2
20260904081618 16 49 8.0 12.9 0.00 0.00 0.00 93 1012.4
20260904081113 16 59 6.4 9.7 0.00 0.00 0.00 93 1012.5
20260904080609 16 54 6.4 8.0 0.00 0.00 0.00 93 1012.3
20260904080105 16 54 8.0 11.3 0.00 0.00 0.00 93 1012.6
20260904075556 16 59 4.8 4.8 0.00 0.00 0.00 93 1012.7
20260904075055 16 75 4.8 8.0 0.00 0.00 0.00 93 1012.7
20260904074555 16 62 3.2 3.2 0.00 0.00 0.00 93 1012.9
20260904074050 16 76 4.8 4.8 0.00 0.00 0.00 93 1013.0
20260904073550 16 66 4.8 4.8 0.00 0.00 0.00 93 1012.9
20260904073047 16 48 4.8 8.0 0.00 0.00 0.00 93 1012.9
20260904072542 16 55 4.8 4.8 0.00 0.00 0.00 92 1012.6
20260904072037 16 65 3.2 3.2 0.00 0.00 0.00 92 1012.6
20260904071532 16 82 4.8 4.8 0.00 0.00 0.00 92 1012.7
20260904071027 16 78 8.0 9.7 0.00 0.00 0.00 92 1012.7
20260904070526 16 131 8.0 9.7 0.00 0.00 0.00 92 1012.5
20260904070021 17 124 4.8 4.8 0.00 0.00 0.00 92 1012.5
20260904065516 17 97 4.8 4.8 0.00 0.00 0.00 92 1012.9
20260904065012 17 93 3.2 3.2 0.00 0.00 0.00 92 1012.6
20260904064508 17 104 3.2 3.2 0.00 0.00 0.00 92 1012.5
20260904064003 17 67 3.2 3.2 0.00 0.00 0.00 92 1012.5
20260904063459 17 89 3.2 3.2 0.00 0.00 0.00 92 1012.3
20260904062954 17 65 3.2 3.2 0.00 0.00 0.00 92 1012.3
20260904062450 17 78 4.8 4.8 0.00 0.00 0.00 91 1012.2
20260904061946 17 74 6.4 8.0 0.00 0.00 0.00 91 1012.4
20260904061442 17 78 8.0 9.7 0.00 0.00 0.00 91 1012.3
20260904060938 17 77 4.8 4.8 0.00 0.00 0.00 91 1012.1
20260904060434 17 82 6.4 9.7 0.00 0.00 0.00 91 1011.9
20260904055929 17 59 8.0 9.7 0.00 0.00 0.00 91 1012.3
20260904055424 17 56 8.0 9.7 0.00 0.00 0.00 91 1012.1
20260904054920 17 57 6.4 8.0 0.00 0.00 0.00 91 1012.2
20260904054410 17 75 8.0 9.7 0.00 0.00 0.00 91 1012.3
20260904053906 17 52 4.8 4.8 0.00 0.00 0.00 91 1012.3
20260904053404 17 56 4.8 4.8 0.00 0.00 0.00 91 1012.1
20260904052900 17 57 6.4 8.0 0.00 0.00 0.00 91 1012.3
20260904052356 17 55 4.8 4.8 0.00 0.00 0.00 91 1012.2
20260904051852 18 60 8.0 8.0 0.00 0.00 0.00 90 1012.2
20260904051348 18 57 6.4 8.0 0.00 0.00 0.00 90 1012.1
20260904050842 18 50 4.8 4.8 0.00 0.00 0.00 90 1012.5
20260904050339 18 55 4.8 4.8 0.00 0.00 0.00 89 1012.4
20260904045833 18 58 3.2 4.8 0.00 0.00 0.00 89 1012.1
20260904045328 18 73 4.8 4.8 0.00 0.00 0.00 89 1012.2
20260904044823 18 69 3.2 4.8 0.00 0.00 0.00 88 1012.2
20260904044319 18 73 4.8 8.0 0.00 0.00 0.00 88 1011.9
20260904043815 18 74 4.8 4.8 0.00 0.00 0.00 89 1012.3
20260904043311 18 63 4.8 4.8 0.00 0.00 0.00 89 1012.1
20260904042806 18 70 3.2 3.2 0.00 0.00 0.00 88 1011.9
20260904042306 18 70 3.2 3.2 0.00 0.00 0.00 88 1012.0
20260904041803 18 73 3.2 3.2 0.00 0.00 0.00 88 1012.2
20260904041259 18 66 4.8 4.8 0.00 0.00 0.00 88 1011.9
20260904040754 19 69 3.2 3.2 0.00 0.00 0.00 88 1011.9
20260904040250 19 64 3.2 3.2 0.00 0.00 0.00 87 1011.9
20260904035746 19 58 3.2 3.2 0.00 0.00 0.00 87 1012.0
20260904035241 20 60 3.2 3.2 0.00 0.00 0.00 86 1011.7
20260904034740 20 59 1.6 1.6 0.00 0.00 0.00 85 1011.5
20260904034236 20 37 4.8 4.8 0.00 0.00 0.00 85 1011.6
20260904033731 20 58 3.2 3.2 0.00 0.00 0.00 85 1011.6
20260904033228 20 53 3.2 3.2 0.00 0.00 0.00 85 1011.5
20260904032723 20 52 3.2 3.2 0.00 0.00 0.00 85 1011.3
20260904032222 20 17 3.2 3.2 0.00 0.00 0.00 86 1011.2
20260904031717 20 26 3.2 3.2 0.00 0.00 0.00 86 1011.3
20260904031213 20 30 3.2 3.2 0.00 0.00 0.00 84 1011.2
20260904030708 21 45 1.6 1.6 0.00 0.00 0.00 82 1011.3
20260904030203 21 45 4.8 8.0 0.00 0.00 0.00 83 1011.3
20260904025700 20 45 3.2 3.2 0.00 0.00 0.00 84 1011.2
20260904025154 21 60 4.8 4.8 0.00 0.00 0.00 83 1010.9
20260904024650 21 60 3.2 3.2 0.00 0.00 0.00 82 1010.9
20260904024145 21 46 4.8 4.8 0.00 0.00 0.00 83 1010.8
20260904023641 21 58 3.2 3.2 0.00 0.00 0.00 84 1010.9
20260904023137 21 56 4.8 4.8 0.00 0.00 0.00 83 1010.9
20260904022637 21 46 4.8 4.8 0.00 0.00 0.00 83 1010.8
20260904022134 21 52 3.2 3.2 0.00 0.00 0.00 84 1010.9
20260904021630 21 47 3.2 3.2 0.00 0.00 0.00 83 1010.7
20260904021125 20 35 3.2 3.2 0.00 0.00 0.00 85 1010.9
20260904020620 21 61 3.2 3.2 0.00 0.00 0.00 85 1010.8
20260904020109 21 79 3.2 3.2 0.00 0.00 0.00 84 1010.9
20260904015603 21 52 3.2 3.2 0.00 0.00 0.00 84 1010.8
20260904015102 21 70 3.2 3.2 0.00 0.00 0.00 83 1010.7
20260904014556 21 74 1.6 1.6 0.00 0.00 0.00 82 1010.5
20260904014052 21 60 1.6 1.6 0.00 0.00 0.00 82 1010.4
20260904013548 21 57 1.6 3.2 0.00 0.00 0.00 83 1010.5
20260904013044 21 60 1.6 1.6 0.00 0.00 0.00 83 1010.2
20260904012544 21 57 1.6 1.6 0.00 0.00 0.00 82 1010.2
20260904012038 22 63 3.2 3.2 0.00 0.00 0.00 81 1010.3
20260904011537 22 71 0.0 0.0 0.00 0.00 0.00 82 1010.1
20260904011033 22 72 0.0 0.0 0.00 0.00 0.00 81 1010.2
20260904010529 22 87 0.0 0.0 0.00 0.00 0.00 80 1010.0
20260904010025 23 87 0.0 0.0 0.00 0.00 0.00 79 1010.1
20260904005525 23 86 1.6 1.6 0.00 0.00 0.00 77 1009.9
20260904005021 24 98 0.0 0.0 0.00 0.00 0.00 76 1010.0
20260904004516 24 78 0.0 1.6 0.00 0.00 0.00 76 1009.7
20260904004016 25 103 1.6 1.6 0.00 0.00 0.00 74 1010.0
20260904003513 25 79 0.0 0.0 0.00 0.00 0.00 74 1009.8
20260904003008 25 152 1.6 1.6 0.00 0.00 0.00 71 1009.7
20260904002504 25 80 1.6 1.6 0.00 0.00 0.00 72 1010.0
20260904002003 25 101 0.0 0.0 0.00 0.00 0.00 70 1009.8
20260904001459 25 79 1.6 1.6 0.00 0.00 0.00 71 1009.8
20260904000959 26 115 0.0 0.0 0.00 0.00 0.00 70 1009.8
20260904000458 26 115 0.0 0.0 0.00 0.00 0.00 71 1009.8
20260903235954 26 121 0.0 0.0 0.00 0.00 0.00 68 1010.0
20260903235449 26 120 0.0 1.6 0.00 0.00 0.00 69 1009.9
20260903234943 26 181 1.6 1.6 0.00 0.00 0.00 69 1009.8
20260903234440 25 187 3.2 3.2 0.00 0.00 0.00 70 1009.9
20260903233936 25 141 4.8 4.8 0.00 0.00 0.00 71 1009.9
20260903233431 25 104 3.2 3.2 0.00 0.00 0.00 71 1009.8
20260903232926 25 115 0.0 1.6 0.00 0.00 0.00 70 1009.6
20260903232420 26 132 3.2 3.2 0.00 0.00 0.00 70 1009.6
20260903231915 25 169 4.8 8.0 0.00 0.00 0.00 70 1009.5
20260903231410 25 107 4.8 4.8 0.00 0.00 0.00 71 1009.5
20260903230905 25 150 6.4 8.0 0.00 0.00 0.00 71 1009.6
20260903230400 25 155 4.8 4.8 0.00 0.00 0.00 72 1009.0
20260903225856 25 147 9.7 11.3 0.00 0.00 0.00 73 1009.0